Regional Weather Roundup
Issued by NWS

Home | Current Version | Previous Version | Graphics & Text | Print | Product List | Glossary On
Versions: 1 2 3 4 5 6 7 8 9 10 11 12 13 14 15 16 17 18 19 20 21 22 23 24 25 26 27 28 29 30 31 32 33 34 35 36 37 38 39 40 41 42 43 44 45 46 47 48 49 50
000
ASUS45 KBOU 212107
RWRCO

WEATHER ROUNDUP FOR COLORADO
NATIONAL WEATHER SERVICE DENVER/BOULDER CO
300 PM MDT MON JUL 21 2014

NOTE: "FAIR" INDICATES FEW OR NO CLOUDS BELOW 12000 FEET WITH NO
SIGNIFICANT WEATHER AND/OR OBSTRUCTIONS TO VISIBILITY.

COZ001>005-013-030-031-212200-
...NORTHWEST COLORADO...

CITY           SKY/WX    TMP DP  RH WIND       PRES   REMARKS
CRAIG          MOSUNNY   89  35  14 W10G22    30.20F
HAYDEN         MOSUNNY   82  37  20 NW8       30.24F
MEEKER         SUNNY     89  32  13 SW14G28   30.23F
MOUNT WERNER   NOT AVBL
STEAMBOAT SPGS MOSUNNY   85  40  19 CALM      30.27F
WALDEN         MOSUNNY   79  36  21 W15       30.38F
$$

COZ006>008-011-212200-
...WEST CENTRAL VALLEYS...

CITY           SKY/WX    TMP DP  RH WIND       PRES   REMARKS
GRAND JUNCTION SUNNY     93  35  13 NW12      30.11F
MONTROSE       MOSUNNY   93  35  13 N10       30.21F
EAGLE          MOSUNNY   84  37  18 W12G21    30.29S
RIFLE          MOSUNNY   93  32  11 NW13      30.17F
DELTA          MOSUNNY   97  34  11 S10       30.16F
NUCLA          NOT AVBL
$$

COZ017>023-064>068-212200-
...SOUTHWEST COLORADO...

CITY           SKY/WX    TMP DP  RH WIND       PRES   REMARKS
DURANGO        MOSUNNY   89  31  12 SW12G20   30.29F
CORTEZ         SUNNY     89  33  13 NW7       30.25F
PAGOSA SPRINGS PTSUNNY   83  32  15 SW13      30.38S
TELLURIDE      MOSUNNY   77  34  20 W9        30.49F
WOLF CREEK PAS NOT AVBL
$$

COZ009-010-012-014-032>034-037-058>063-212200-
...CENTRAL COLORADO...

CITY           SKY/WX    TMP DP  RH WIND       PRES   REMARKS
ASPEN          PTSUNNY   81  31  16 CALM      30.36F
BUENA VISTA    PTSUNNY   82  30  15 NE6       30.37F
COPPER MTN     MOSUNNY   66  28  24 W14G20    30.75S
BERTHOUD PASS  FAIR      55  41  58 MISG      30.78F
COTTONWOOD PAS PTSUNNY   77  27  15 N3        30.54F
GUNNISON       PTSUNNY   81  41  24 NW7       30.38F
KREMMLING      PTSUNNY   86  28  12 W16G23    30.34F
LEADVILLE      PTSUNNY   70  29  21 W8G17     30.53F
MONARCH PASS   PTSUNNY   63  30  29 W20G36    30.83S
SALIDA         PTSUNNY   87  29  12 NW9       30.40F
SUNLIGHT       MOSUNNY   73  39  29 CALM      30.66S
WILKERSON PASS NOT AVBL
$$

COZ069>075-212200-
...SAN LUIS VALLEY/SANGRE DE CRISTO MOUNTAINS...

CITY           SKY/WX    TMP DP  RH WIND       PRES   REMARKS
ALAMOSA        MOSUNNY   79  50  36 W10       30.36S
LA VETA PASS   PTSUNNY   72  45  37 NE9G20    30.59F
SAGUACHE       PTSUNNY   70  52  52 W8        30.40F
$$

COZ035-036-038>040-212200-
...NORTHERN COLORADO FRONT RANGE...

CITY           SKY/WX    TMP DP  RH WIND       PRES   REMARKS
DENVER INTL AP PTSUNNY   94  35  12 W7        30.14F
DMNS CITY PARK   N/A     95  40  14 E3G10     30.12F
AURORA         PTSUNNY   89  39  17 SE3       30.17F
FRONT RANGE AP PTSUNNY   93  36  13 CALM      30.17
ERIE MUNI ARPT MOSUNNY   92  31  11 CALM      30.10F
BOULDER MUN AP MOSUNNY   97  37  12 W15       30.10F
CENTENNIAL     PTSUNNY   92  36  14 N6        30.18F
BROOMFIELD     NOT AVBL
FORT COLLINS   MOSUNNY   97  43  15 S10       30.07F
LONGMONT       MOSUNNY  100  37  11 W7G16     30.10F
$$

COZ041-046-047-076>085-087-088-212200-
...PIKES PEAK/PALMER DIVIDE AND SOUTHERN FOOTHILLS...

CITY           SKY/WX    TMP DP  RH WIND       PRES   REMARKS
COLO. SPRINGS  PTSUNNY   87  43  21 SE10      30.23F
A. F. ACADEMY  PTSUNNY   87  46  24 S13       30.25S
ELLICOTT       PTSUNNY   87  39  18 S8        30.21F
FALCON         PTSUNNY   87  40  19 S12       30.29F
FORT CARSON    PTSUNNY   89  42  19 E9        30.20F
LIMON          CLOUDY    90  40  17 SE20      30.15F
MONUMENT HILL  PTSUNNY   82  36  18 N6        30.29F
TRINIDAD       LGT RAIN  80  49  33 W18       30.23R
$$

COZ042>045-048>051-090-091-212200-
...NORTHEAST COLORADO...

CITY           SKY/WX    TMP DP  RH WIND       PRES   REMARKS
GREELEY ARPT   MOSUNNY   97  46  17 S6        30.09F
AKRON          PTSUNNY   95  37  13 VRB6      30.08F
BURLINGTON     PTSUNNY   95  53  24 VRB6      30.05F
WRAY             N/A    103  40  11 SE3       30.00F
STERLING       PTSUNNY   97  63  32 S9        30.01F
HOLYOKE        PTSUNNY   99  57  25 SE10      30.00F
FORT MORGAN    PTSUNNY   97  40  14 SE5       30.08F
$$

COZ086-089-092>099-212200-
...SOUTHEAST COLORADO...

CITY           SKY/WX    TMP DP  RH WIND       PRES   REMARKS
PUEBLO         PTSUNNY   93  38  14 SW9       30.08F
LA JUNTA       MOSUNNY   97  48  18 CALM      30.04F
LAMAR          SUNNY    100  45  15 W5        29.98F
SPRINGFIELD      N/A     90  56  31 S12       30.06R
$$


USA.gov is the U.S. government's official web portal to all federal, state and local government web resources and services.